This is the latest recevied weather packets stored in our database for station/object WP3XM. If no packets are shown the sender has not sent any weather packets the latest 10 day(s).
| Time | Temp. | Humidity | Pressure | Rain* | Wind** | Luminosity | Snow |
|---|---|---|---|---|---|---|---|
| 1778176795 | 29.44° C | 73% | 1017.4 hPa | 0 mm | - | 925 W/m² | - |
| 1778176492 | 30° C | 72% | 1017.5 hPa | 0 mm | - | 312 W/m² | - |
| 1778176189 | 30° C | 71% | 1017.5 hPa | 0 mm | - | 959 W/m² | - |
| 1778175886 | 29.44° C | 72% | 1017.6 hPa | 0 mm | - | 1049 W/m² | - |
| 1778175584 | 29.44° C | 71% | 1017.5 hPa | 0 mm | - | 947 W/m² | - |
| 1778175281 | 29.44° C | 73% | 1017.6 hPa | 0 mm | - | 990 W/m² | - |
| 1778174978 | 29.44° C | 72% | 1017.6 hPa | 0 mm | - | 984 W/m² | - |
| 1778174674 | 29.44° C | 72% | 1018 hPa | 0 mm | - | 964 W/m² | - |
| 1778174370 | 29.44° C | 75% | 1017.8 hPa | 0 mm | - | 972 W/m² | - |
| 1778174067 | 29.44° C | 74% | 1017.9 hPa | 0 mm | - | 1012 W/m² | - |
| 1778173764 | 28.89° C | 72% | 1018 hPa | 0 mm | - | 988 W/m² | - |
| 1778173460 | 29.44° C | 73% | 1018.3 hPa | 0 mm | - | 814 W/m² | - |
| 1778173157 | 29.44° C | 73% | 1018.1 hPa | 0 mm | - | 580 W/m² | - |
| 1778172853 | 28.89° C | 73% | 1018.4 hPa | 0 mm | - | 1027 W/m² | - |
| 1778172548 | 28.89° C | 73% | 1018.3 hPa | 0 mm | - | 1039 W/m² | - |
| 1778172246 | 28.89° C | 72% | 1018.4 hPa | 0 mm | - | 1047 W/m² | - |
| 1778171943 | 28.89° C | 75% | 1018.6 hPa | 0 mm | - | 1048 W/m² | - |
| 1778171640 | 28.89° C | 77% | 1018.7 hPa | 0 mm | - | 1083 W/m² | - |
| 1778171337 | 28.33° C | 77% | 1018.7 hPa | 0 mm | - | 1145 W/m² | - |
| 1778171032 | 28.33° C | 78% | 1018.9 hPa | 0 mm | - | 1160 W/m² | - |
| 1778170730 | 27.78° C | 81% | 1018.8 hPa | 0 mm | - | 1116 W/m² | - |
| 1778170426 | 27.22° C | 83% | 1019 hPa | 0 mm | - | 615 W/m² | - |
| 1778170123 | 27.22° C | 86% | 1018.9 hPa | 0 mm | - | 463 W/m² | - |
| 1778169818 | 26.67° C | 85% | 1019 hPa | 0 mm | - | 520 W/m² | - |
| 1778169515 | 27.22° C | 82% | 1019.2 hPa | 0 mm | - | 382 W/m² | - |
* Rain latest hour (hover to see other rain measurements)
** Current wind speed in m/s (hover to see current wind gust speed)